Location: Appletree Creek
(38.7363°N, 122.6833°W)
Time: 17:14:15
(UTC+00:00)

Cosmos 2322 Rocket - Pass Details

Date: 18 September 2020
Orbit: 831 x 852 km, 71.0° (Epoch: 19 October)

Event Time Altitude Azimuth Distance (km) Brightness Sun altitude
Rises 13:00:01 0° 206° (SSW) 3,379 5.0 -11.5°
Reaches altitude 10° 13:02:27 10° 208° (SSW) 2,452 4.2 -11.1°
Maximum altitude 13:08:05 74° 293° (WNW) 881 2.2 -10.0°
Drops below altitude 10° 13:13:47 10° 19° (NNE) 2,480 5.0 -8.9°
Sets 13:16:15 0° 21° (NNE) 3,422 5.8 -8.4°
